nws-alerts: Checking more than four warning/county codes can delay the loading of your pages. You should use a cron job to get the data.
EllijayWeather Historical Data
Daily Summary for February 23, 2019 Units:  English    Metric   Both
Daily Weekly Monthly Yearly
  High: Low: Average:
Temperature: 52.0 °F 48.0 °F 49.5 °F
Dew Point: 51.0 °F 46.0 °F 47.8 °F
Humidity: 99% 90% 94%
Wind Speed: 7mph 0mph 2.3mph
Wind Gust: 11mph - -
Wind- - SE
Pressure: 30.2 in 30.0 in -
Precipitation: 0.170 in    
 
 
Tabular Data for February 23, 2019
Time Temperature Dew Point Pressure Wind Wind Speed Wind Gust Humidity Rainfall Rate (Hourly)
00:04 49.0 °F 48.0 °F 30.2 in ESE 2 mph 4 mph 97% 0.060 in
00:09 49.0 °F 48.0 °F 30.2 in ESE 7 mph 7 mph 97% 0.050 in
00:14 49.0 °F 48.0 °F 30.2 in ESE 6 mph 10 mph 97% 0.040 in
00:19 49.0 °F 48.0 °F 30.2 in ESE 4 mph 10 mph 97% 0.030 in
00:24 49.0 °F 48.0 °F 30.2 in SE 7 mph 8 mph 97% 0.030 in
00:29 49.0 °F 48.0 °F 30.2 in ESE 6 mph 9 mph 97% 0.020 in
00:34 49.0 °F 48.0 °F 30.2 in ESE 4 mph 8 mph 96% 0.020 in
00:39 49.0 °F 48.0 °F 30.2 in SE 6 mph 6 mph 96% 0.020 in
00:44 49.0 °F 48.0 °F 30.2 in SE 6 mph 9 mph 96% 0.010 in
00:49 49.0 °F 48.0 °F 30.2 in ESE 5 mph 6 mph 96% 0.010 in
00:54 49.0 °F 48.0 °F 30.2 in ESE 6 mph 11 mph 96% 0.010 in
00:59 49.0 °F 48.0 °F 30.2 in SE 7 mph 9 mph 96% 0.000 in
01:04 49.0 °F 48.0 °F 30.2 in ESE 6 mph 7 mph 96% 0.000 in
01:09 49.0 °F 48.0 °F 30.2 in SE 7 mph 8 mph 96% 0.000 in
01:14 49.0 °F 48.0 °F 30.2 in SE 7 mph 9 mph 96% 0.000 in
01:19 49.0 °F 48.0 °F 30.2 in ESE 4 mph 9 mph 96% 0.000 in
01:24 49.0 °F 48.0 °F 30.2 in SE 5 mph 6 mph 96% 0.000 in
01:29 49.0 °F 48.0 °F 30.2 in SE 4 mph 6 mph 96% 0.000 in
01:34 49.0 °F 48.0 °F 30.2 in ESE 6 mph 8 mph 96% 0.000 in
01:39 49.0 °F 48.0 °F 30.2 in East 1 mph 8 mph 96% 0.000 in
01:44 49.0 °F 48.0 °F 30.2 in East 4 mph 5 mph 96% 0.000 in
01:49 49.0 °F 48.0 °F 30.2 in East 5 mph 5 mph 96% 0.000 in
01:54 49.0 °F 48.0 °F 30.2 in SE 5 mph 5 mph 96% 0.000 in
01:59 49.0 °F 48.0 °F 30.2 in SE 6 mph 7 mph 96% 0.000 in
02:04 49.0 °F 48.0 °F 30.2 in SE 5 mph 6 mph 95% 0.000 in
02:09 49.0 °F 48.0 °F 30.2 in SE 2 mph 5 mph 95% 0.000 in
02:14 50.0 °F 48.0 °F 30.2 in SE 5 mph 5 mph 95% 0.000 in
02:19 49.0 °F 48.0 °F 30.2 in ESE 5 mph 7 mph 95% 0.000 in
02:24 49.0 °F 48.0 °F 30.2 in East 2 mph 7 mph 95% 0.000 in
02:29 50.0 °F 48.0 °F 30.2 in ESE 6 mph 6 mph 95% 0.000 in
02:34 50.0 °F 48.0 °F 30.2 in ESE 4 mph 6 mph 94% 0.000 in
02:39 49.0 °F 48.0 °F 30.2 in SE 5 mph 8 mph 94% 0.000 in
02:44 50.0 °F 48.0 °F 30.2 in East 3 mph 7 mph 94% 0.000 in
02:49 50.0 °F 48.0 °F 30.2 in SE 5 mph 7 mph 94% 0.000 in
02:54 50.0 °F 48.0 °F 30.2 in ESE 4 mph 7 mph 94% 0.000 in
02:59 50.0 °F 48.0 °F 30.2 in East 5 mph 7 mph 93% 0.000 in
03:04 50.0 °F 48.0 °F 30.2 in ESE 5 mph 7 mph 94% 0.000 in
03:09 50.0 °F 48.0 °F 30.2 in ESE 2 mph 4 mph 94% 0.000 in
03:14 50.0 °F 48.0 °F 30.2 in East 4 mph 5 mph 94% 0.000 in
03:19 50.0 °F 48.0 °F 30.2 in East 5 mph 7 mph 94% 0.000 in
03:24 50.0 °F 48.0 °F 30.2 in ESE 5 mph 7 mph 94% 0.000 in
03:29 50.0 °F 48.0 °F 30.2 in SE 4 mph 7 mph 94% 0.000 in
03:34 50.0 °F 48.0 °F 30.2 in SE 2 mph 6 mph 94% 0.000 in
03:39 50.0 °F 48.0 °F 30.2 in ESE 5 mph 6 mph 94% 0.000 in
03:44 50.0 °F 48.0 °F 30.2 in SE 5 mph 5 mph 94% 0.000 in
03:49 50.0 °F 48.0 °F 30.2 in ESE 4 mph 5 mph 93% 0.000 in
03:54 50.0 °F 48.0 °F 30.2 in ESE 6 mph 6 mph 93% 0.000 in
03:59 50.0 °F 48.0 °F 30.2 in ESE 6 mph 8 mph 93% 0.000 in
04:04 50.0 °F 48.0 °F 30.2 in ESE 5 mph 11 mph 93% 0.000 in
04:09 50.0 °F 48.0 °F 30.2 in ESE 6 mph 11 mph 93% 0.000 in
04:14 50.0 °F 48.0 °F 30.2 in ESE 5 mph 7 mph 93% 0.000 in
04:19 49.0 °F 47.0 °F 30.2 in SE 6 mph 7 mph 93% 0.000 in
04:24 49.0 °F 47.0 °F 30.2 in ESE 5 mph 7 mph 92% 0.000 in
04:29 49.0 °F 47.0 °F 30.2 in SE 6 mph 8 mph 93% 0.000 in
04:34 49.0 °F 47.0 °F 30.2 in ESE 5 mph 11 mph 92% 0.000 in
04:39 49.0 °F 47.0 °F 30.2 in ESE 5 mph 11 mph 92% 0.000 in
04:44 49.0 °F 47.0 °F 30.2 in SE 5 mph 7 mph 92% 0.000 in
04:49 49.0 °F 47.0 °F 30.2 in ESE 5 mph 7 mph 93% 0.000 in
04:54 49.0 °F 47.0 °F 30.2 in ESE 4 mph 6 mph 93% 0.000 in
04:59 49.0 °F 47.0 °F 30.2 in SE 5 mph 8 mph 93% 0.000 in
05:04 49.0 °F 47.0 °F 30.2 in ESE 6 mph 8 mph 93% 0.000 in
05:09 49.0 °F 47.0 °F 30.2 in SE 5 mph 8 mph 93% 0.000 in
05:14 49.0 °F 47.0 °F 30.2 in ESE 6 mph 10 mph 93% 0.000 in
05:19 49.0 °F 47.0 °F 30.2 in ESE 4 mph 5 mph 93% 0.000 in
05:24 48.0 °F 46.0 °F 30.2 in SE 5 mph 6 mph 93% 0.000 in
05:29 49.0 °F 47.0 °F 30.2 in SE 4 mph 5 mph 93% 0.000 in
05:34 49.0 °F 47.0 °F 30.2 in ESE 4 mph 5 mph 93% 0.000 in
05:39 49.0 °F 47.0 °F 30.2 in SE 6 mph 7 mph 93% 0.000 in
05:44 49.0 °F 47.0 °F 30.2 in SE 2 mph 7 mph 93% 0.000 in
05:49 49.0 °F 47.0 °F 30.2 in SE 2 mph 5 mph 93% 0.000 in
05:54 48.0 °F 46.0 °F 30.2 in ESE 5 mph 5 mph 93% 0.000 in
05:59 48.0 °F 46.0 °F 30.2 in SE 5 mph 6 mph 93% 0.000 in
06:04 48.0 °F 46.0 °F 30.2 in SE 5 mph 5 mph 93% 0.000 in
06:09 48.0 °F 46.0 °F 30.2 in SE 6 mph 8 mph 93% 0.000 in
06:14 48.0 °F 46.0 °F 30.2 in SE 5 mph 8 mph 93% 0.000 in
06:19 48.0 °F 46.0 °F 30.2 in SE 4 mph 8 mph 93% 0.000 in
06:24 48.0 °F 46.0 °F 30.2 in ESE 5 mph 6 mph 93% 0.000 in
06:29 48.0 °F 46.0 °F 30.2 in ESE 4 mph 11 mph 94% 0.000 in
06:34 48.0 °F 46.0 °F 30.2 in ESE 5 mph 11 mph 94% 0.000 in
06:39 48.0 °F 46.0 °F 30.2 in ESE 2 mph 6 mph 94% 0.000 in
06:44 48.0 °F 46.0 °F 30.2 in ESE 4 mph 6 mph 93% 0.000 in
06:49 48.0 °F 46.0 °F 30.2 in SE 2 mph 8 mph 93% 0.000 in
06:54 48.0 °F 46.0 °F 30.2 in SE 5 mph 5 mph 93% 0.000 in
06:59 48.0 °F 46.0 °F 30.2 in SE 6 mph 8 mph 93% 0.000 in
07:04 48.0 °F 46.0 °F 30.2 in SE 4 mph 8 mph 94% 0.000 in
07:09 48.0 °F 46.0 °F 30.2 in SE 4 mph 5 mph 94% 0.000 in
07:14 48.0 °F 46.0 °F 30.2 in SE 5 mph 7 mph 94% 0.000 in
07:19 48.0 °F 46.0 °F 30.2 in SE 4 mph 7 mph 93% 0.000 in
07:24 48.0 °F 46.0 °F 30.2 in Calm   4 mph 93% 0.000 in
07:29 48.0 °F 46.0 °F 30.2 in SE 1 mph 5 mph 94% 0.000 in
07:34 48.0 °F 46.0 °F 30.2 in SE 2 mph 5 mph 94% 0.000 in
07:39 48.0 °F 46.0 °F 30.2 in SE 2 mph 4 mph 93% 0.000 in
07:44 48.0 °F 46.0 °F 30.2 in ESE 2 mph 4 mph 93% 0.000 in
07:49 48.0 °F 46.0 °F 30.2 in SE 5 mph 6 mph 93% 0.000 in
07:54 48.0 °F 46.0 °F 30.2 in SE 2 mph 4 mph 93% 0.000 in
07:59 48.0 °F 46.0 °F 30.2 in SE 4 mph 6 mph 93% 0.000 in
08:04 48.0 °F 46.0 °F 30.2 in SE 4 mph 4 mph 93% 0.000 in
08:09 49.0 °F 47.0 °F 30.2 in ESE 1 mph 4 mph 93% 0.000 in
08:14 49.0 °F 47.0 °F 30.2 in SE 4 mph 6 mph 93% 0.000 in
08:19 49.0 °F 47.0 °F 30.2 in SE 4 mph 5 mph 93% 0.000 in
08:24 49.0 °F 47.0 °F 30.2 in SE 5 mph 5 mph 93% 0.000 in
08:29 49.0 °F 47.0 °F 30.2 in SE 2 mph 4 mph 93% 0.000 in
08:34 48.0 °F 47.0 °F 30.2 in ESE 4 mph 6 mph 94% 0.000 in
08:39 48.0 °F 46.0 °F 30.2 in ESE 5 mph 6 mph 94% 0.000 in
08:44 48.0 °F 46.0 °F 30.2 in SE 4 mph 6 mph 95% 0.000 in
08:49 48.0 °F 46.0 °F 30.2 in West 1 mph 6 mph 95% 0.000 in
08:54 48.0 °F 46.0 °F 30.2 in West 1 mph 6 mph 95% 0.000 in
08:59 48.0 °F 47.0 °F 30.2 in WNW 1 mph 2 mph 96% 0.000 in
09:04 48.0 °F 47.0 °F 30.2 in West 3 mph 3 mph 96% 0.000 in
09:09 48.0 °F 47.0 °F 30.2 in NW 1 mph 7 mph 95% 0.000 in
09:14 48.0 °F 47.0 °F 30.2 in SE 4 mph 7 mph 95% 0.000 in
09:19 48.0 °F 47.0 °F 30.2 in SE 5 mph 7 mph 95% 0.000 in
09:24 49.0 °F 47.0 °F 30.2 in SE 1 mph 5 mph 95% 0.000 in
09:29 49.0 °F 47.0 °F 30.2 in SW 2 mph 3 mph 95% 0.000 in
09:34 49.0 °F 48.0 °F 30.2 in West 3 mph 4 mph 96% 0.000 in
09:39 49.0 °F 48.0 °F 30.2 in WNW 1 mph 2 mph 95% 0.000 in
09:44 49.0 °F 48.0 °F 30.2 in Calm   1 mph 95% 0.000 in
09:49 49.0 °F 48.0 °F 30.2 in Calm   1 mph 95% 0.000 in
09:54 49.0 °F 48.0 °F 30.2 in WNW 2 mph 2 mph 94% 0.000 in
09:59 49.0 °F 47.0 °F 30.2 in WNW 1 mph 1 mph 93% 0.000 in
10:04 49.0 °F 47.0 °F 30.2 in WNW 2 mph 3 mph 94% 0.000 in
10:09 48.0 °F 47.0 °F 30.2 in NW 2 mph 2 mph 95% 0.000 in
10:14 48.0 °F 47.0 °F 30.2 in Calm   2 mph 96% 0.000 in
10:19 48.0 °F 47.0 °F 30.2 in Calm     96% 0.000 in
10:24 48.0 °F 47.0 °F 30.2 in Calm     96% 0.000 in
10:29 48.0 °F 47.0 °F 30.2 in Calm     95% 0.000 in
10:34 48.0 °F 46.0 °F 30.2 in NW 1 mph 1 mph 95% 0.000 in
10:39 48.0 °F 46.0 °F 30.2 in NE 1 mph 4 mph 95% 0.000 in
10:44 48.0 °F 46.0 °F 30.2 in Calm     95% 0.000 in
10:49 48.0 °F 46.0 °F 30.2 in Calm   1 mph 95% 0.000 in
10:54 48.0 °F 46.0 °F 30.2 in Calm   1 mph 95% 0.000 in
10:59 48.0 °F 46.0 °F 30.2 in Calm   2 mph 95% 0.000 in
11:04 48.0 °F 47.0 °F 30.2 in Calm   2 mph 95% 0.000 in
11:09 48.0 °F 46.0 °F 30.2 in SE 2 mph 2 mph 94% 0.000 in
11:14 48.0 °F 46.0 °F 30.2 in SE 4 mph 4 mph 94% 0.000 in
11:19 48.0 °F 47.0 °F 30.2 in Calm   4 mph 94% 0.000 in
11:24 48.0 °F 47.0 °F 30.2 in SE 2 mph 2 mph 94% 0.000 in
11:29 48.0 °F 47.0 °F 30.2 in SE 2 mph 2 mph 94% 0.000 in
11:34 48.0 °F 47.0 °F 30.2 in Calm   2 mph 94% 0.000 in
11:39 49.0 °F 47.0 °F 30.2 in Calm     94% 0.000 in
11:44 49.0 °F 47.0 °F 30.2 in Calm   1 mph 94% 0.000 in
11:49 49.0 °F 47.0 °F 30.2 in SE 2 mph 2 mph 93% 0.000 in
11:54 49.0 °F 47.0 °F 30.2 in Calm   1 mph 94% 0.000 in
11:59 49.0 °F 47.0 °F 30.2 in Calm   1 mph 94% 0.000 in
12:04 49.0 °F 47.0 °F 30.2 in SSE 4 mph 4 mph 93% 0.000 in
12:09 49.0 °F 47.0 °F 30.2 in Calm   4 mph 93% 0.000 in
12:14 49.0 °F 47.0 °F 30.2 in SSE 4 mph 4 mph 93% 0.000 in
12:19 49.0 °F 47.0 °F 30.2 in SE 1 mph 4 mph 93% 0.000 in
12:24 49.0 °F 47.0 °F 30.2 in ESE 2 mph 2 mph 92% 0.000 in
12:29 49.0 °F 47.0 °F 30.2 in Calm   2 mph 93% 0.000 in
12:34 49.0 °F 47.0 °F 30.2 in ESE 1 mph 2 mph 93% 0.000 in
12:39 49.0 °F 47.0 °F 30.2 in Calm     93% 0.000 in
12:44 49.0 °F 47.0 °F 30.2 in Calm     93% 0.000 in
12:49 49.0 °F 48.0 °F 30.2 in Calm     94% 0.000 in
12:54 49.0 °F 48.0 °F 30.2 in Calm     94% 0.000 in
12:59 49.0 °F 47.0 °F 30.2 in Calm     93% 0.000 in
13:04 49.0 °F 47.0 °F 30.2 in Calm     93% 0.000 in
13:09 49.0 °F 47.0 °F 30.2 in Calm     93% 0.000 in
13:14 49.0 °F 47.0 °F 30.2 in ESE 1 mph 2 mph 92% 0.000 in
13:19 49.0 °F 47.0 °F 30.2 in East 1 mph 2 mph 92% 0.000 in
13:24 49.0 °F 47.0 °F 30.2 in Calm   2 mph 93% 0.000 in
13:29 49.0 °F 47.0 °F 30.2 in Calm   1 mph 93% 0.000 in
13:34 49.0 °F 47.0 °F 30.2 in Calm     92% 0.000 in
13:39 49.0 °F 47.0 °F 30.2 in East 4 mph 4 mph 93% 0.000 in
13:44 49.0 °F 47.0 °F 30.1 in Calm   4 mph 92% 0.000 in
13:49 49.0 °F 47.0 °F 30.1 in East 1 mph 1 mph 92% 0.000 in
13:54 49.0 °F 47.0 °F 30.1 in East 1 mph 4 mph 93% 0.000 in
13:59 49.0 °F 47.0 °F 30.1 in Calm   1 mph 92% 0.000 in
14:04 49.0 °F 47.0 °F 30.1 in Calm     92% 0.000 in
14:09 50.0 °F 47.0 °F 30.1 in SSE 2 mph 2 mph 92% 0.000 in
14:14 50.0 °F 48.0 °F 30.1 in SE 1 mph 2 mph 92% 0.000 in
14:19 50.0 °F 48.0 °F 30.1 in SSE 1 mph 4 mph 92% 0.000 in
14:24 50.0 °F 48.0 °F 30.1 in SE 4 mph 5 mph 92% 0.000 in
14:29 50.0 °F 48.0 °F 30.1 in Calm   5 mph 92% 0.000 in
14:34 50.0 °F 48.0 °F 30.1 in SE 2 mph 2 mph 93% 0.000 in
14:39 50.0 °F 48.0 °F 30.1 in Calm     92% 0.000 in
14:44 51.0 °F 49.0 °F 30.1 in SE 2 mph 2 mph 92% 0.000 in
14:49 51.0 °F 49.0 °F 30.1 in ESE 4 mph 5 mph 92% 0.000 in
14:54 51.0 °F 49.0 °F 30.1 in Calm   5 mph 92% 0.000 in
14:59 51.0 °F 49.0 °F 30.1 in ESE 2 mph 4 mph 91% 0.000 in
15:04 51.0 °F 49.0 °F 30.1 in East 1 mph 2 mph 90% 0.000 in
15:09 51.0 °F 49.0 °F 30.1 in SE 2 mph 5 mph 90% 0.000 in
15:14 52.0 °F 49.0 °F 30.1 in Calm   4 mph 90% 0.000 in
15:19 52.0 °F 49.0 °F 30.1 in Calm     91% 0.000 in
15:24 52.0 °F 49.0 °F 30.1 in Calm     91% 0.000 in
15:29 52.0 °F 49.0 °F 30.1 in North 1 mph 1 mph 91% 0.000 in
15:34 52.0 °F 49.0 °F 30.1 in NW 1 mph 1 mph 91% 0.000 in
15:39 52.0 °F 49.0 °F 30.1 in Calm     91% 0.000 in
15:44 52.0 °F 49.0 °F 30.1 in Calm     91% 0.000 in
15:49 52.0 °F 49.0 °F 30.1 in Calm   1 mph 91% 0.000 in
15:54 51.0 °F 49.0 °F 30.1 in Calm   1 mph 90% 0.000 in
15:59 51.0 °F 49.0 °F 30.1 in Calm   1 mph 91% 0.000 in
16:04 51.0 °F 49.0 °F 30.1 in Calm     91% 0.000 in
16:09 51.0 °F 49.0 °F 30.1 in NNW 1 mph 2 mph 91% 0.000 in
16:14 51.0 °F 49.0 °F 30.1 in Calm   2 mph 91% 0.000 in
16:19 51.0 °F 49.0 °F 30.1 in Calm   1 mph 91% 0.000 in
16:24 51.0 °F 49.0 °F 30.1 in Calm     91% 0.000 in
16:29 51.0 °F 49.0 °F 30.1 in NNE 1 mph 1 mph 92% 0.000 in
16:34 51.0 °F 49.0 °F 30.1 in NE 1 mph 2 mph 92% 0.000 in
16:39 51.0 °F 49.0 °F 30.1 in Calm     92% 0.000 in
16:44 51.0 °F 49.0 °F 30.1 in Calm     92% 0.000 in
16:49 51.0 °F 49.0 °F 30.1 in NNE 1 mph 1 mph 92% 0.000 in
16:54 51.0 °F 49.0 °F 30.1 in Calm   2 mph 92% 0.000 in
16:59 51.0 °F 49.0 °F 30.1 in NNE 1 mph 2 mph 91% 0.000 in
17:04 51.0 °F 49.0 °F 30.1 in Calm   1 mph 92% 0.000 in
17:09 51.0 °F 49.0 °F 30.1 in Calm     92% 0.000 in
17:14 51.0 °F 49.0 °F 30.1 in SE 2 mph 4 mph 92% 0.000 in
17:19 51.0 °F 49.0 °F 30.1 in SE 4 mph 5 mph 91% 0.000 in
17:24 51.0 °F 49.0 °F 30.1 in SE 2 mph 2 mph 92% 0.000 in
17:29 51.0 °F 49.0 °F 30.1 in SE 2 mph 4 mph 92% 0.000 in
17:34 51.0 °F 49.0 °F 30.1 in SSE 2 mph 2 mph 92% 0.000 in
17:39 51.0 °F 48.0 °F 30.1 in SE 4 mph 4 mph 92% 0.000 in
17:44 51.0 °F 48.0 °F 30.1 in ESE 5 mph 5 mph 92% 0.000 in
17:49 50.0 °F 48.0 °F 30.1 in SE 5 mph 7 mph 92% 0.000 in
17:54 50.0 °F 48.0 °F 30.1 in Calm   2 mph 92% 0.000 in
17:59 50.0 °F 48.0 °F 30.1 in SE 2 mph 5 mph 92% 0.000 in
18:04 50.0 °F 48.0 °F 30.1 in SE 4 mph 5 mph 92% 0.000 in
18:09 50.0 °F 48.0 °F 30.1 in ESE 4 mph 5 mph 92% 0.000 in
18:14 50.0 °F 48.0 °F 30.0 in ESE 2 mph 2 mph 93% 0.000 in
18:19 50.0 °F 48.0 °F 30.0 in Calm   2 mph 93% 0.000 in
18:24 50.0 °F 48.0 °F 30.0 in SE 2 mph 4 mph 93% 0.000 in
18:29 50.0 °F 48.0 °F 30.0 in SE 4 mph 4 mph 93% 0.000 in
18:34 50.0 °F 48.0 °F 30.0 in SSE 1 mph 2 mph 93% 0.000 in
18:39 50.0 °F 48.0 °F 30.0 in Calm   1 mph 93% 0.000 in
18:44 50.0 °F 48.0 °F 30.0 in SE 1 mph 5 mph 93% 0.000 in
18:49 50.0 °F 48.0 °F 30.0 in SE 1 mph 5 mph 93% 0.000 in
18:54 50.0 °F 48.0 °F 30.0 in Calm   1 mph 93% 0.000 in
18:59 50.0 °F 48.0 °F 30.0 in SE 1 mph 5 mph 93% 0.000 in
19:04 50.0 °F 48.0 °F 30.0 in Calm   1 mph 94% 0.000 in
19:09 50.0 °F 48.0 °F 30.0 in Calm   4 mph 94% 0.000 in
19:14 50.0 °F 48.0 °F 30.0 in Calm   1 mph 94% 0.000 in
19:19 50.0 °F 48.0 °F 30.0 in SE 2 mph 2 mph 94% 0.000 in
19:24 50.0 °F 48.0 °F 30.0 in SE 2 mph 4 mph 94% 0.000 in
19:29 50.0 °F 48.0 °F 30.0 in SE 1 mph 4 mph 93% 0.000 in
19:34 50.0 °F 48.0 °F 30.0 in SE 1 mph 1 mph 93% 0.000 in
19:39 50.0 °F 48.0 °F 30.0 in SE 2 mph 2 mph 94% 0.000 in
19:44 50.0 °F 48.0 °F 30.0 in SE 2 mph 2 mph 93% 0.000 in
19:49 50.0 °F 48.0 °F 30.0 in SE 2 mph 2 mph 94% 0.000 in
19:54 50.0 °F 48.0 °F 30.0 in SE 1 mph 2 mph 94% 0.000 in
19:59 50.0 °F 48.0 °F 30.0 in SE 2 mph 4 mph 94% 0.000 in
20:04 50.0 °F 48.0 °F 30.0 in Calm   1 mph 94% 0.000 in
20:09 50.0 °F 48.0 °F 30.0 in Calm   1 mph 94% 0.000 in
20:14 50.0 °F 49.0 °F 30.0 in SE 2 mph 2 mph 95% 0.000 in
20:19 50.0 °F 49.0 °F 30.0 in SE 1 mph 2 mph 95% 0.000 in
20:24 50.0 °F 49.0 °F 30.0 in SE 2 mph 4 mph 94% 0.000 in
20:29 50.0 °F 49.0 °F 30.0 in Calm   1 mph 94% 0.000 in
20:34 50.0 °F 49.0 °F 30.0 in SE 1 mph 1 mph 95% 0.000 in
20:39 50.0 °F 49.0 °F 30.0 in Calm   1 mph 95% 0.000 in
20:44 51.0 °F 49.0 °F 30.0 in SE 1 mph 2 mph 95% 0.010 in
20:49 51.0 °F 50.0 °F 30.0 in SE 4 mph 4 mph 96% 0.030 in
20:54 50.0 °F 49.0 °F 30.0 in SE 1 mph 2 mph 96% 0.030 in
20:59 50.0 °F 49.0 °F 30.0 in Calm   1 mph 97% 0.030 in
21:04 50.0 °F 49.0 °F 30.0 in Calm     97% 0.040 in
21:09 50.0 °F 49.0 °F 30.0 in Calm     97% 0.040 in
21:14 50.0 °F 49.0 °F 30.0 in Calm     97% 0.040 in
21:19 50.0 °F 49.0 °F 30.0 in Calm     98% 0.050 in
21:24 50.0 °F 49.0 °F 30.0 in SE 1 mph 3 mph 98% 0.050 in
21:29 50.0 °F 49.0 °F 30.0 in Calm     98% 0.060 in
21:34 50.0 °F 49.0 °F 30.0 in Calm   1 mph 98% 0.090 in
21:39 50.0 °F 49.0 °F 30.0 in SSW 1 mph 2 mph 98% 0.110 in
21:44 50.0 °F 49.0 °F 30.0 in Calm   2 mph 98% 0.110 in
21:49 50.0 °F 49.0 °F 30.0 in Calm     98% 0.100 in
21:54 50.0 °F 49.0 °F 30.0 in Calm     98% 0.080 in
21:59 50.0 °F 49.0 °F 30.0 in Calm     98% 0.080 in
22:04 50.0 °F 49.0 °F 30.0 in Calm     98% 0.080 in
22:09 50.0 °F 50.0 °F 30.0 in Calm     99% 0.070 in
22:14 50.0 °F 50.0 °F 30.0 in Calm   2 mph 99% 0.070 in
22:19 50.0 °F 50.0 °F 30.0 in SSW 1 mph 4 mph 99% 0.070 in
22:24 51.0 °F 50.0 °F 30.0 in South 3 mph 4 mph 99% 0.070 in
22:29 51.0 °F 50.0 °F 30.0 in SSW 3 mph 4 mph 99% 0.070 in
22:34 51.0 °F 50.0 °F 30.0 in ENE 2 mph 4 mph 99% 0.060 in
22:39 51.0 °F 51.0 °F 30.0 in Calm     99% 0.030 in
22:44 51.0 °F 51.0 °F 30.0 in North 1 mph 2 mph 99% 0.020 in
22:49 51.0 °F 51.0 °F 30.0 in Calm     99% 0.020 in
22:54 51.0 °F 51.0 °F 30.0 in Calm   1 mph 99% 0.020 in
22:59 51.0 °F 51.0 °F 30.0 in ESE 5 mph 7 mph 99% 0.020 in
23:04 51.0 °F 51.0 °F 30.0 in SE 1 mph 2 mph 99% 0.020 in
23:09 51.0 °F 51.0 °F 30.0 in NE 2 mph 3 mph 99% 0.030 in
23:14 51.0 °F 51.0 °F 30.0 in NNE 2 mph 2 mph 99% 0.040 in
23:19 51.0 °F 50.0 °F 30.0 in ENE 1 mph 2 mph 98% 0.050 in
23:24 50.0 °F 49.0 °F 30.0 in Calm   2 mph 97% 0.050 in
23:29 50.0 °F 49.0 °F 30.0 in ENE 2 mph 4 mph 97% 0.040 in
23:34 50.0 °F 49.0 °F 30.0 in NNE 2 mph 4 mph 98% 0.050 in
23:39 49.0 °F 49.0 °F 30.0 in Calm     98% 0.050 in
23:44 49.0 °F 49.0 °F 30.0 in NNE 2 mph 2 mph 98% 0.040 in
23:49 49.0 °F 49.0 °F 30.0 in Calm     98% 0.040 in
23:54 49.0 °F 49.0 °F 30.0 in NNE 1 mph 1 mph 99% 0.040 in
23:59 49.0 °F 49.0 °F 30.0 in NE 2 mph 3 mph 98% 0.040 in
East Ellijay Weather
Compliments of Weather Underground - 2 mb